Station 41049 - SOUTH BERMUDA - 300 NM SSE of Bermuda Image indicating link to RSS feed of recent meteorological observations for station 41049


Conditions at 41049 as of
0530 GMT on 04/19/2024:
     

Click on the graph icon in the table below to see a time series plot of the last five days of that observation.

5-day plot - Wind Direction Wind Direction (WDIR):ENE ( 70 deg true )
5-day plot - Wind Speed Wind Speed (WSPD): 7.8 kts
5-day plot - Wind Gust Wind Gust (GST): 9.7 kts
5-day plot - Atmospheric Pressure Atmospheric Pressure (PRES):30.00 in
5-day plot - Air Temperature Air Temperature (ATMP): 70.7 °F
5-day plot - Water Temperature Water Temperature (WTMP): 72.3 °F
5-day plot - Dew Point Dew Point (DEWP): 62.1 °F
5-day plot - Wind Speed at 10 Meters Wind Speed at 10 meters (WSPD10M): 9.7 kts
5-day plot - Wind Speed at 20 Meters Wind Speed at 20 meters (WSPD20M): 9.7 kts
5-day plot -  Wind Speed, Wind Gust and Atmospheric Pressure Combined plot of Wind Speed, Gust, and Air Pressure
Supplemental Measurements
Lowest 1-minute Pressure
Time (GMT)Pressure
053030.00 in
Highest 1-minute Wind Speed
Time (GMT)5-day plot - 1-Minute Wind Speed WSPD 5-day plot - 1-Minute Wind Direction WDIR
0530 9.7 ktsENE ( 70 deg true )
Previous observations
TIME
(GMT)
5-day plot - Wind Direction
WDIR
 
5-day plot - Wind Speed
WSPD
kts
5-day plot - Wind Gust
GST
kts
5-day plot - Wave Height
WVHT
ft
5-day plot - Dominant Wave Period
DPD
sec
5-day plot - Average Wave Period
APD
sec
5-day plot - Mean Wave Direction
MWD
 
5-day plot - Atmospheric Pressure
PRES
in
5-day plot - Pressure Tendency
PTDY
in
5-day plot - Air Temperature
ATMP
°F
5-day plot - Water Temperature
WTMP
°F
5-day plot - Dew Point
DEWP
°F
5-day plot - Salinity
SAL
psu
5-day plot - Visibility
VIS
nmi
5-day plot - Tide (above MLLW)
TIDE
ft
2024-04-19 0520ENE 7.8 9.7 4.6 116.4 NE30.01- 70.7 72.3 62.1---
2024-04-19 0510 E 9.7 11.7 4.6-6.4 NE30.01- 70.9 72.3 61.9---
2024-04-19 0500ENE 9.7 11.7----30.02-0.04 70.9 72.3 62.2---
2024-04-19 0450ENE 9.7 11.7 4.9 76.3 E30.02- 70.9 72.3 62.1---
2024-04-19 0440ENE 9.7 11.7----30.03- 70.9 72.3 62.2---
2024-04-19 0430ENE 9.7 13.6----30.03- 70.9 72.3 62.4---
2024-04-19 0420ENE 9.7 11.7 4.9 116.4ENE30.03- 70.9 72.3 62.2---
2024-04-19 0410ENE 9.7 11.7 4.9-6.4ENE30.04- 71.1 72.3 62.6---
2024-04-19 0400ENE 9.7 13.6----30.04-0.01 71.1 72.3 62.4---
2024-04-19 0350ENE 9.7 11.7 4.6 116.1ENE30.04- 71.1 72.3 62.4---
2024-04-19 0340ENE 9.7 11.7----30.05- 71.1 72.3 62.8---
2024-04-19 0330ENE 9.7 13.6----30.05- 71.1 72.3 62.8---
2024-04-19 0320ENE 11.7 13.6 4.9 116.4ENE30.05- 71.1 72.3 62.6---
2024-04-19 0310ENE 11.7 13.6 4.9-6.4ENE30.06- 71.1 72.3 63.0---
2024-04-19 0300ENE 11.7 13.6----30.06+0.01 70.9 72.3 63.1---
2024-04-19 0250 NE 11.7 13.6 4.9 116.5 NE30.06- 71.1 72.3 63.7---
2024-04-19 0240 NE 11.7 13.6----30.06- 71.1 72.3 63.3---
2024-04-19 0230 NE 11.7 13.6----30.06- 71.1 72.3 63.3---
2024-04-19 0220 NE 9.7 11.7 4.9 116.3ENE30.06- 71.1 72.3 63.1---
2024-04-19 0210 NE 9.7 11.7 4.9-6.3ENE30.06- 71.2 72.3 63.5---
2024-04-19 0200 NE 9.7 11.7----30.06+0.03 71.2 72.3 62.8---
2024-04-19 0150 NE 9.7 11.7 5.2 116.4ENE30.06- 71.1 72.3 62.6---
2024-04-19 0140 NE 11.7 13.6----30.06- 71.1 72.3 62.6---
2024-04-19 0130 NE 9.7 13.6----30.06- 71.1 72.3 62.2---
2024-04-19 0120 NE 9.7 11.7 5.2 116.6ENE30.06- 71.1 72.3 62.1---
2024-04-19 0110 NE 9.7 13.6----30.06- 71.1 72.3 61.9---
2024-04-19 0100 NE 11.7 13.6----30.06+0.03 71.1 72.3 61.7---
2024-04-19 0050 NE 11.7 13.6 5.2 116.3ENE30.06- 71.1 72.3 61.9---
2024-04-19 0040NNE 11.7 13.6----30.06- 71.1 72.3 62.4---
2024-04-19 0030NNE 11.7 13.6----30.05- 71.1 72.3 62.8---
2024-04-19 0020NNE 11.7 13.6 4.9 86.1 E30.05- 71.1 72.3 62.6---
2024-04-19 0010 NE 11.7 13.6 4.9-6.1 E30.05- 71.1 72.3 63.0---
2024-04-19 0000 NE 9.7 13.6----30.05+0.04 71.1 72.3 63.1---
2024-04-18 2350 NE 9.7 11.7 5.6 116.5 NE30.04- 71.1 72.3 63.1---
2024-04-18 2340 NE 9.7 11.7----30.04- 71.1 72.3 63.1---
2024-04-18 2310 NE 9.7 11.7 5.2-6.4ENE30.03- 71.1 72.3 62.4---
2024-04-18 2300 NE 9.7 13.6----30.03+0.02 71.1 72.3 62.2---
2024-04-18 2250 NE 9.7 11.7 5.6 116.4 NE30.03- 71.1 72.3 62.1---
2024-04-18 2240 NE 9.7 13.6----30.03- 71.1 72.3 62.6---
2024-04-18 2230NNE 9.7 13.6----30.03- 71.1 72.3 63.0---
2024-04-18 2220NNE 9.7 13.6 5.6 116.4ENE30.03- 71.2 72.3 63.0---
2024-04-18 2210NNE 9.7 13.6 5.6-6.4ENE30.03- 71.2 72.3 63.1---
2024-04-18 2200NNE 11.7 13.6----30.03+0.00 71.2 72.3 63.0---
2024-04-18 2150 NE 9.7 11.7 4.9 116.1 NE30.02- 71.2 72.3 62.6---
2024-04-18 2140 NE 11.7 11.7----30.02- 71.2 72.3 63.0---
2024-04-18 2130 NE 11.7 13.6----30.01- 71.2 72.3 62.8---
2024-04-18 2120 NE 9.7 11.7 5.2 106.2ENE30.01- 71.2 72.5 63.1---
2024-04-18 2110 NE 11.7 13.6 5.2-6.2ENE30.01- 71.2 72.5 62.8---
2024-04-18 2100 NE 9.7 13.6----30.01-0.02 71.2 72.5 63.0---
2024-04-18 2050 NE 9.7 13.6 6.2 116.8ENE30.01- 71.2 72.5 63.0---
2024-04-18 2040 NE 11.7 13.6----30.01- 71.2 72.5 63.0---
2024-04-18 2030 NE 11.7 13.6----30.01- 71.2 72.5 63.0---
2024-04-18 2020NNE 11.7 13.6 5.9 116.6ENE30.01- 71.2 72.5 63.0---
2024-04-18 2010 NE 11.7 13.6 5.9-6.6ENE30.01- 71.2 72.7 63.1---
2024-04-18 2000 NE 11.7 13.6----30.01-0.04 71.2 72.7 63.1---
2024-04-18 1950 NE 9.7 13.6 5.6 126.2ENE30.01- 71.2 72.7 63.3---
2024-04-18 1940 NE 11.7 13.6----30.01- 71.2 72.7 63.9---
2024-04-18 1930NNE 11.7 13.6----30.01- 71.2 72.5 63.7---
2024-04-18 1920NNE 11.7 13.6 5.9 116.4ENE30.02- 71.2 72.5 63.9---
2024-04-18 1910 NE 11.7 15.5 5.9-6.4ENE30.02- 71.2 72.5 63.9---
2024-04-18 1900 NE 11.7 13.6----30.01-0.04 71.2 72.5 63.7---
2024-04-18 1850 NE 11.7 13.6 5.2 116.1ENE30.01- 71.2 72.5 63.9---
2024-04-18 1840 NE 11.7 13.6----30.02- 71.2 72.5 63.9---
2024-04-18 1830 NE 11.7 13.6----30.02- 71.2 72.5 64.0---
2024-04-18 1820 NE 11.7 13.6 5.2 116.1ENE30.03- 71.2 72.5 63.9---
2024-04-18 1810 NE 11.7 13.6 5.2-6.1ENE30.03- 71.2 72.5 64.0---
2024-04-18 1800 NE 11.7 13.6----30.03-0.04 71.2 72.5 63.9---
2024-04-18 1750 NE 11.7 15.5 5.2 126.1ENE30.03- 71.4 72.5 64.4---
2024-04-18 1740 NE 11.7 15.5----30.04- 71.2 72.5 64.0---
2024-04-18 1730NNE 13.6 15.5----30.04- 71.2 72.5 64.2---
2024-04-18 1720NNE 13.6 15.5 5.6 126.4ENE30.04- 71.4 72.5 64.4---
2024-04-18 1710NNE 13.6 15.5 5.6-6.4ENE30.05- 71.4 72.5 64.8---
2024-04-18 1700NNE 13.6 15.5----30.05-0.03 71.4 72.3 64.9---
2024-04-18 1650 NE 13.6 15.5 5.6 116.4 NE30.05- 71.4 72.5 64.6---
2024-04-18 1640 NE 13.6 15.5 5.6-6.4 NE30.05- 71.2 72.5 64.8---
2024-04-18 1630 NE 11.7 15.5----30.06- 71.4 72.5 64.9---
2024-04-18 1620 NE 11.7 13.6 4.9 126.2ENE30.06- 71.4 72.5 64.8---
2024-04-18 1610 NE 11.7 15.5 4.9-6.2ENE30.06- 71.2 72.3 64.6---
2024-04-18 1600 NE 11.7 13.6----30.06-0.02 71.2 72.3 64.6---
2024-04-18 1550 NE 11.7 13.6 5.9 126.5ENE30.06- 71.2 72.3 64.6---
2024-04-18 1540 NE 11.7 13.6 5.9-6.5ENE30.06- 71.4 72.3 64.8---
2024-04-18 1530 NE 11.7 13.6----30.06- 71.4 72.3 64.6---
2024-04-18 1520 NE 11.7 13.6 5.2 116.4 NE30.07- 71.4 72.3 63.9---
2024-04-18 1510 NE 11.7 13.6 5.2-6.4 NE30.07- 71.2 72.3 63.9---
2024-04-18 1500 NE 11.7 13.6----30.07+0.00 71.1 72.3 64.6---
2024-04-18 1450 NE 11.7 13.6 5.2 126.2ENE30.07- 71.1 72.1 65.1---
2024-04-18 1440 NE 9.7 13.6----30.07- 71.2 72.1 65.1---
2024-04-18 1430 NE 11.7 13.6----30.07- 71.2 72.1 64.8---
2024-04-18 1420 NE 11.7 13.6 5.2 126.3ENE30.07- 71.2 72.1 64.2---
2024-04-18 1410 NE 11.7 13.6 5.2-6.3ENE30.07- 71.2 72.1 64.6---
2024-04-18 1400 NE 11.7 13.6----30.07+0.01 71.2 72.1 64.6---
2024-04-18 1350 NE 11.7 13.6 5.6 126.5ENE30.07- 71.2 72.1 64.2---
2024-04-18 1340 NE 11.7 13.6----30.08- 71.2 72.1 64.6---
2024-04-18 1330 NE 11.7 13.6----30.08- 71.1 72.1 64.4---
2024-04-18 1320 NE 11.7 13.6 5.6 126.6ENE30.08- 71.2 72.0 64.6---
2024-04-18 1310 NE 11.7 15.5 5.6-6.6ENE30.08- 71.2 72.0 63.9---
2024-04-18 1300 NE 13.6 15.5----30.08+0.03 71.2 72.0 63.9---
2024-04-18 1250 NE 11.7 13.6 5.6 126.4ENE30.07- 71.1 72.0 63.9---
2024-04-18 1240 NE 11.7 13.6 5.6-6.4ENE30.07- 71.1 72.0 64.0---
2024-04-18 1230 NE 11.7 15.5----30.07- 71.1 72.0 64.6---
2024-04-18 1220 NE 11.7 13.6 5.2 116.2 NE30.07- 71.2 72.0 64.8---
2024-04-18 1210 NE 11.7 13.6 5.2-6.2 NE30.07- 71.1 72.0 64.0---
2024-04-18 1200 NE 11.7 13.6----30.06+0.04 71.1 72.0 64.0---
2024-04-18 1150 NE 11.7 13.6 5.9 126.7ENE30.06- 71.1 72.0 64.0---
2024-04-18 1140 NE 11.7 13.6----30.06- 71.2 72.0 64.0---
2024-04-18 1130 NE 11.7 13.6----30.06- 71.2 72.0 63.9---
2024-04-18 1120 NE 11.7 15.5 5.9 126.4 NE30.06- 71.1 72.0 63.9---
2024-04-18 1110 NE 11.7 13.6 5.9-6.4 NE30.07- 71.1 72.0 64.0---
2024-04-18 1100 NE 11.7 13.6----30.06+0.04 71.2 72.0 64.4---
2024-04-18 1050 NE 11.7 15.5 5.6 116.4ENE30.06- 71.2 72.0 64.0---
2024-04-18 1040 NE 11.7 15.5----30.06- 71.1 72.0 63.9---
2024-04-18 1030 NE 11.7 13.6----30.06- 71.1 72.0 63.9---
2024-04-18 1020 NE 11.7 13.6 5.9 126.6ENE30.06- 71.1 72.0 64.0---
2024-04-18 1010 NE 11.7 15.5 5.9-6.6ENE30.05- 71.1 72.0 64.2---
2024-04-18 1000 NE 13.6 15.5----30.05+0.01 70.9 72.0 64.2---
2024-04-18 0950 NE 11.7 15.5 5.6 126.3 NE30.04- 71.1 72.0 64.6---
2024-04-18 0940 NE 11.7 15.5----30.04- 71.1 72.0 64.2---
2024-04-18 0930 NE 11.7 13.6----30.04- 71.1 72.0 64.0---
2024-04-18 0920 NE 11.7 15.5 5.9 126.1 NE30.03- 71.1 72.0 64.2---
2024-04-18 0910 NE 11.7 13.6 5.9-6.1 NE30.03- 71.1 72.0 64.4---
2024-04-18 0900 NE 11.7 13.6----30.03-0.01 71.1 72.0 64.0---
2024-04-18 0850 NE 11.7 13.6 6.2 126.7ENE30.02- 71.1 72.0 64.2---
2024-04-18 0840 NE 11.7 13.6----30.03- 71.1 72.0 64.0---
2024-04-18 0830 NE 11.7 13.6----30.03- 71.1 72.0 64.6---
2024-04-18 0820 NE 11.7 13.6 6.2 126.6ENE30.03- 71.1 72.0 64.4---
2024-04-18 0810 NE 11.7 13.6 6.2-6.6ENE30.03- 71.1 72.0 64.4---
2024-04-18 0800 NE 11.7 13.6----30.03-0.01 71.2 72.0 64.8---
2024-04-18 0750 NE 11.7 13.6 6.2 136.7ENE30.03- 71.1 72.0 64.6---
2024-04-18 0740 NE 11.7 13.6----30.04- 71.2 72.0 64.9---
2024-04-18 0730 NE 11.7 13.6----30.04- 71.2 72.0 64.9---
2024-04-18 0720 NE 11.7 15.5 6.6 126.7 NE30.04- 71.2 72.0 64.8---
2024-04-18 0710 NE 11.7 13.6 6.6-6.7 NE30.03- 71.2 72.0 64.9---
2024-04-18 0700 NE 11.7 15.5----30.04-0.02 71.2 72.0 64.9---
2024-04-18 0650 NE 13.6 15.5 6.2 116.3ENE30.03- 71.2 72.0 64.9---
2024-04-18 0640 NE 13.6 15.5----30.03- 71.2 72.0 65.5---
2024-04-18 0630 NE 13.6 15.5----30.03- 71.2 72.0 65.3---
2024-04-18 0620 NE 13.6 17.5 5.9 126.2ENE30.04- 71.2 72.0 65.1---
2024-04-18 0610 NE 15.5 17.5 5.9-6.2ENE30.04- 71.2 72.0 64.9---
2024-04-18 0600 NE 13.6 17.5----30.04-0.04 71.2 72.0 65.3---
2024-04-18 0550 NE 13.6 15.5 6.2 126.3ENE30.04- 71.2 72.0 65.5---

Detailed Wave Summary
for 41049 as of
0510 GMT on 04/19/2024:

These wave data are displayed in rounded times.

     

Click on the graph icon in the table below to see a time series plot of the last five days of that observation.

5-day plot - Significant Wave Height Significant Wave Height (WVHT): 4.6 ft
5-day plot - Swell Height Swell Height (SwH): 4.6 ft
5-day plot - Swell Period Swell Period (SwP): 10.8 sec
5-day plot - Swell Direction Swell Direction (SwD): NE
5-day plot - Wind Wave Height Wind Wave Height (WWH): 1.6 ft
5-day plot - Wind Wave Period Wind Wave Period (WWP): 4.2 sec
5-day plot - Wind Wave Direction Wind Wave Direction (WWD): E
5-day plot - Wave Steepness Wave Steepness (STEEPNESS): SWELL
5-day plot - Average Wave Period Average Wave Period (APD): 6.4 sec
Previous observations
TIME
(GMT)
5-day plot - Wave Height
WVHT
ft
5-day plot - Swell Height
SwH
ft
5-day plot - Swell Period
SwP
sec
5-day plot - Swell Direction
SwD
 
5-day plot - Wind Wave Height
WWH
ft
5-day plot - Wind Wave Period
WWP
sec
5-day plot - Wind Wave Direction
WWD
 
5-day plot - Wave Steepness
STEEPNESS
 
5-day plot - Average Wave Period
APD
sec
2024-04-19 0440 4.9 4.6 7.1 E 1.6 4.2 ENE STEEP 6.3
2024-04-19 0410 4.9 4.6 11.4ENE 1.6 4.5 E SWELL 6.4
2024-04-19 0340 4.6 4.3 11.4ENE 1.6 4.3 ENE SWELL 6.1
2024-04-19 0310 4.9 4.6 11.4ENE 2.0 5.3 E SWELL 6.4
2024-04-19 0240 4.9 4.6 11.4 NE 2.0 5.0 E SWELL 6.5
2024-04-19 0210 4.9 4.3 10.8ENE 2.0 5.0 E SWELL 6.3
2024-04-19 0140 5.2 4.6 11.4ENE 2.0 4.3 E SWELL 6.4
2024-04-19 0110 5.2 4.9 11.4ENE 2.0 4.2 ENE SWELL 6.6
2024-04-19 0040 5.2 4.6 11.4ENE 2.3 5.6 E SWELL 6.3
2024-04-19 0010 4.9 4.3 7.7 E 2.0 5.0 E AVERAGE 6.1
2024-04-18 2340 5.6 5.2 11.4 NE 1.6 4.3 ENE SWELL 6.5
2024-04-18 2310 5.2 4.9 11.4ENE 2.0 4.8 ENE SWELL 6.4
2024-04-18 2240 5.6 4.9 11.4 NE 2.3 5.0 E SWELL 6.4
2024-04-18 2210 5.6 5.2 11.4ENE 2.3 4.8 E SWELL 6.4
2024-04-18 2140 4.9 4.6 11.4 NE 2.3 5.3 ESE SWELL 6.1
2024-04-18 2110 5.2 4.9 10.0ENE 2.3 4.3 E SWELL 6.2
2024-04-18 2040 6.2 5.6 11.4ENE 2.3 5.0 ESE SWELL 6.8
2024-04-18 2010 5.9 5.6 11.4ENE 2.3 4.0 ENE SWELL 6.6
2024-04-18 1940 5.6 4.9 12.1ENE 2.3 4.5 E SWELL 6.2
2024-04-18 1910 5.9 5.2 10.8ENE 2.6 5.6 E SWELL 6.4
2024-04-18 1840 5.2 4.6 11.4ENE 2.6 5.6 E SWELL 6.1
2024-04-18 1810 5.2 4.6 10.8ENE 2.3 5.3 E SWELL 6.1
2024-04-18 1740 5.2 4.6 12.1ENE 2.6 5.3 ESE SWELL 6.1
2024-04-18 1710 5.6 4.6 12.1ENE 2.6 5.6 ESE SWELL 6.4
2024-04-18 1640 5.6 4.6 11.4 NE 3.0 5.3 ESE SWELL 6.4
2024-04-18 1610 4.9 4.3 12.1ENE 2.3 5.3 E SWELL 6.2
2024-04-18 1540 5.9 5.2 12.1ENE 2.6 5.0 E SWELL 6.5
2024-04-18 1510 5.2 4.9 11.4 NE 2.3 5.0 E SWELL 6.4
2024-04-18 1440 5.2 4.6 12.1ENE 2.3 4.8 E SWELL 6.2
2024-04-18 1410 5.2 4.9 12.1ENE 2.3 5.0 E SWELL 6.3
2024-04-18 1340 5.6 5.2 12.1ENE 2.6 5.3 E SWELL 6.5
2024-04-18 1310 5.6 4.9 12.1ENE 2.3 5.9 E SWELL 6.6
2024-04-18 1240 5.6 4.9 12.1ENE 2.6 5.0 ESE SWELL 6.4
2024-04-18 1210 5.2 4.6 11.4 NE 2.6 4.8 E SWELL 6.2
2024-04-18 1140 5.9 5.2 12.1ENE 2.6 5.6 E SWELL 6.7
2024-04-18 1110 5.9 5.2 12.1 NE 2.6 4.5 ENE SWELL 6.4
2024-04-18 1040 5.6 4.9 11.4ENE 2.6 5.0 ESE SWELL 6.4
2024-04-18 1010 5.9 5.2 12.1ENE 3.0 4.8 ENE SWELL 6.6
2024-04-18 0940 5.6 4.9 12.1 NE 3.0 4.8 E SWELL 6.3
2024-04-18 0910 5.9 4.9 12.1 NE 3.0 4.5 ENE SWELL 6.1
2024-04-18 0840 6.2 5.6 12.1ENE 2.6 5.0 E SWELL 6.7
2024-04-18 0810 6.2 5.6 12.1ENE 3.0 5.6 ESE SWELL 6.6
2024-04-18 0740 6.2 5.9 12.9ENE 2.3 4.5 E SWELL 6.7
2024-04-18 0710 6.6 5.9 12.1 NE 3.0 5.9 E SWELL 6.7
2024-04-18 0640 6.2 4.9 10.8ENE 3.6 5.9 ESE SWELL 6.3
2024-04-18 0610 5.9 4.9 12.1ENE 3.3 5.9 ESE SWELL 6.2

Plot of wave energy versus frequency (and period)